Weather History for KCID - March, 2013

Change the Weather History Date:

Sunday, March 3, 2013

  Actual Average Record
Temperature  
Mean Temperature 18 °F 31 °F  
Max Temperature 30 °F 40 °F 71 °F (1983)
Min Temperature 6 °F 22 °F -15 °F (2014)
Degree Days  
Heating Degree Days 47 34  
Month to date heating degree days 137 104  
Since 1 July heating degree days 5249 5387  
Cooling Degree Days 0 0  
Month to date cooling degree days 0 0  
Year to date cooling degree days 0 0  
Moisture  
Dew Point 13 °F    
Average Humidity 77    
Maximum Humidity 100    
Minimum Humidity 53    
Precipitation  
Precipitation 0.00 in 0.06 in 0.74 in (1985)
Month to date precipitation 0.01 0.18  
Year to date precipitation 1.96 2.32  
Sea Level Pressure  
Sea Level Pressure 30.11 in    
Wind  
Wind Speed 5 mph (ESE)    
Max Wind Speed 15 mph    
Max Gust Speed 17 mph    
Visibility 8 miles    
Events Fog    
T = Trace of Precipitation, MM = Missing Value Source: NWS Daily Summary

Daily Weather History Graph

Daily Weather History Graph

Search for Another Location

Airport or City:

Trip Planner

Search our weather history database for the weather conditions in past years. The results will help you decide how hot, cold, wet, or windy it might be!

Date:

Astronomy

Mar. 03, 2013 Rise Set
Actual Time 6:38 AM CST 5:59 PM CST
Civil Twilight 6:10 AM CST 6:27 PM CST
Nautical Twilight 5:38 AM CST 7:00 PM CST
Astronomical Twilight 5:05 AM CST 7:32 PM CST
Moon No Moon Rise 9:47 AM CST (3/3)
Length of Visible Light 12h 17m
Length of Day
11h 21m
Waning Gibbous, 63% of the Moon is Illuminated
Mar 3
Waning Gibbous
Mar 4
Last Quarter
Mar 11
New
Mar 19
First Quarter
Mar 27
Full

Hourly Weather History & Observations

Time (CST) Temp. Windchill Dew Point Humidity Pressure Visibility Wind Dir Wind Speed Gust Speed Precip Events Conditions
12:52 AM 9.0 °F 2.4 °F 7.0 °F 92% 30.22 in 7.0 mi West 3.5 mph - N/A   Clear
1:52 AM 7.0 °F - 5.0 °F 92% 30.21 in 6.0 mi Calm Calm - N/A   Mostly Cloudy
2:52 AM 12.0 °F - 10.0 °F 92% 30.18 in 8.0 mi Calm Calm - N/A   Overcast
3:52 AM 10.0 °F - 7.0 °F 87% 30.18 in 7.0 mi Calm Calm - N/A   Clear
4:52 AM 10.4 °F - 8.6 °F 92% 30.12 in 6.0 mi Calm Calm - N/A   Scattered Clouds
5:52 AM 8.6 °F - 6.8 °F 92% 30.13 in 2.0 mi Calm Calm - N/A   Mostly Cloudy
6:19 AM 10.4 °F - 6.8 °F 85% 30.12 in 6.0 mi Calm Calm - N/A Fog Shallow Fog
6:52 AM 8.1 °F - 6.1 °F 92% 30.17 in 4.0 mi Calm Calm - N/A Fog Shallow Fog
7:52 AM 10.9 °F 4.7 °F 9.0 °F 92% 30.18 in 4.0 mi NE 3.5 mph - N/A   Clear
8:52 AM 12.2 °F - 12.2 °F 100% 30.13 in 4.0 mi Calm Calm - N/A   Mostly Cloudy
9:52 AM 19.0 °F 12.3 °F 16.0 °F 88% 30.16 in 7.0 mi ESE 4.6 mph - N/A   Overcast
10:52 AM 24.1 °F - 17.1 °F 75% 30.15 in 10.0 mi Calm Calm - N/A   Overcast
11:52 AM 27.0 °F 19.5 °F 16.0 °F 63% 30.14 in 10.0 mi South 6.9 mph - N/A   Scattered Clouds
12:52 PM 28.9 °F 25.2 °F 16.0 °F 58% 30.11 in 10.0 mi SSE 3.5 mph - N/A   Clear
1:52 PM 30.0 °F 23.2 °F 15.1 °F 54% 30.09 in 10.0 mi ESE 6.9 mph - N/A   Mostly Cloudy
2:52 PM 28.9 °F 20.4 °F 17.1 °F 61% 30.07 in 10.0 mi ESE 9.2 mph - N/A   Clear
3:52 PM 28.9 °F 19.8 °F 16.0 °F 58% 30.06 in 10.0 mi East 10.4 mph - N/A   Clear
4:52 PM 28.0 °F 19.3 °F 15.1 °F 58% 30.05 in 10.0 mi East 9.2 mph - N/A   Clear
5:52 PM 26.1 °F 16.8 °F 17.1 °F 69% 30.06 in 10.0 mi ESE 9.2 mph - N/A   Clear
6:52 PM 25.0 °F 15.5 °F 16.0 °F 69% 30.06 in 10.0 mi ESE 9.2 mph - N/A   Clear
7:52 PM 25.0 °F 14.8 °F 15.1 °F 66% 30.05 in 10.0 mi ESE 10.4 mph - N/A   Clear
8:52 PM 25.0 °F 14.8 °F 14.0 °F 63% 30.06 in 10.0 mi ESE 10.4 mph - N/A   Clear
9:52 PM 25.0 °F 14.2 °F 16.0 °F 69% 30.04 in 10.0 mi ESE 11.5 mph - N/A   Mostly Cloudy
10:52 PM 24.8 °F 13.4 °F 15.8 °F 69% 29.99 in 10.0 mi ESE 12.7 mph - N/A   Overcast
11:52 PM 26.1 °F 16.8 °F 15.1 °F 63% 30.05 in 10.0 mi SE 9.2 mph - N/A   Overcast